DW2959 Murcia ES current weather conditions

sailwx.info

Wind from 259 at 1 knots

Air temperature 23.9° C
Dewpoint 21.2° C

Last reported at 2015-Aug-03 05:49 UTC.
Time now 2015-Aug-03 06:35 UTC

Location: N 38°00' W 001°02'.
View on Google Maps.

See reports from other nearby stations

  
Tides and Currents Weather Stations Pressure Air Temp Water Temp Dewpoint Dewpoint Depression Visibility Wind Speed Wind Dir Waves Ship Positions
date/time (UTC)wind fromknots sea level pressurealtimeterstation pressurevisibilityair tempwater tempwave heightnotes
2015-Aug-03 05:49 259 1 23.9
2015-Aug-03 05:35
2015-Aug-03 05:19
2015-Aug-03 05:04
2015-Aug-03 04:49
2015-Aug-03 04:34
2015-Aug-03 04:18
2015-Aug-03 04:03
2015-Aug-03 03:48
2015-Aug-03 03:33
2015-Aug-03 03:17
2015-Aug-03 03:03 202 23.9
2015-Aug-03 02:48 202 0 23.9
2015-Aug-03 02:33 157 0 23.3
2015-Aug-03 02:17 105 23.3
2015-Aug-03 02:02 105 23.3
2015-Aug-03 01:48 104 0 23.3
2015-Aug-03 01:32 104 0 23.3
2015-Aug-03 01:17 104 23.9
2015-Aug-03 01:03 104 23.9
2015-Aug-03 00:47 104 23.9
2015-Aug-03 00:32 104 23.9
2015-Aug-03 00:19 104 23.9
2015-Aug-03 00:02 104 24.4
2015-Aug-02 23:46 104 25.0
2015-Aug-02 23:32 104 25.0
2015-Aug-02 23:16 104 25.6
2015-Aug-02 23:01 104 25.6
2015-Aug-02 22:47 104 25.6
2015-Aug-02 22:32 104 25.6
2015-Aug-02 22:16 104 25.6
2015-Aug-02 22:02 104 25.6
2015-Aug-02 21:46 104 0 26.1
2015-Aug-02 21:31 104 26.1
2015-Aug-02 21:17 105 0 26.1
2015-Aug-02 21:01 105 26.1
2015-Aug-02 20:46 107 0 26.7
2015-Aug-02 20:30 103 0 26.7
2015-Aug-02 20:16 096 1 26.7
2015-Aug-02 20:00 086 0 27.2
2015-Aug-02 19:45 084 1 27.2
2015-Aug-02 19:15 088 1 27.8
2015-Aug-02 19:00 063 2 28.3
2015-Aug-02 18:45 103 2 28.3
2015-Aug-02 18:31 067 3 28.9
2015-Aug-02 18:14 095 2 29.4
2015-Aug-02 18:00 086 3 29.4
2015-Aug-02 17:45 089 3 29.4
2015-Aug-02 17:32 087 4 30.0
2015-Aug-02 17:14 079 2 30.0
2015-Aug-02 17:00 102 4 30.6
2015-Aug-02 16:45 078 6 30.6
2015-Aug-02 16:29 090 5 30.6
2015-Aug-02 16:14 074 4 31.1
2015-Aug-02 16:00 092 5 31.1
2015-Aug-02 15:44 073 4 30.6
2015-Aug-02 15:30 078 6 30.6
2015-Aug-02 15:15 086 4 30.6
2015-Aug-02 14:59 098 3 31.1
2015-Aug-02 14:44 152 6 30.6
2015-Aug-02 14:30 088 4 30.6
2015-Aug-02 14:14 053 6 30.6
2015-Aug-02 13:59 107 6 30.6
2015-Aug-02 13:44 112 4 31.1
2015-Aug-02 13:28 091 4 30.6
2015-Aug-02 13:14 107 5 30.6
2015-Aug-02 12:58 082 5 30.0
2015-Aug-02 12:43 117 4 30.0
2015-Aug-02 12:28 082 5 30.6
2015-Aug-02 12:14 090 3 30.6
2015-Aug-02 11:59 111 6 30.6
2015-Aug-02 11:43 134 6 30.0
2015-Aug-02 11:28 088 5 30.6
2015-Aug-02 11:13 088 5 30.0
2015-Aug-02 10:58 069 3 30.0
2015-Aug-02 10:44 090 1 29.4
2015-Aug-02 10:27 067 3 28.9
2015-Aug-02 10:13 089 4 29.4
2015-Aug-02 09:58 105 3 29.4
2015-Aug-02 09:43 098 4 29.4
2015-Aug-02 09:27 078 4 28.3
2015-Aug-02 09:13 118 3 28.3
2015-Aug-02 08:58 088 4 27.8
2015-Aug-02 08:43 096 5 28.3
2015-Aug-02 08:27 070 4 28.3
2015-Aug-02 08:13 082 5 27.8
2015-Aug-02 07:57 072 3 27.8
2015-Aug-02 07:42 092 0 27.2
2015-Aug-02 07:26 080 1 26.7
2015-Aug-02 07:12 072 0 26.7
2015-Aug-02 06:57 069 0 26.7
2015-Aug-02 06:42 074 0 26.7
2015-Aug-02 06:26 075 0 26.1
2015-Aug-02 06:12 075 26.1
2015-Aug-02 05:56
2015-Aug-02 05:41
2015-Aug-02 05:25
2015-Aug-02 05:11
2015-Aug-02 04:56
2015-Aug-02 04:41
2015-Aug-02 04:25
2015-Aug-02 04:10
2015-Aug-02 03:55
2015-Aug-02 03:40
2015-Aug-02 03:26
2015-Aug-02 03:10 076 26.1
2015-Aug-02 02:54 075 26.1
2015-Aug-02 02:40 076 26.1
2015-Aug-02 02:24 075 26.1
2015-Aug-02 02:10 076 26.1
2015-Aug-02 01:54 076 26.1
2015-Aug-02 01:39 076 26.1
2015-Aug-02 01:25 075 26.1
2015-Aug-02 01:09 075 26.1
2015-Aug-02 00:54 075 26.1
2015-Aug-02 00:40 075 26.1
2015-Aug-02 00:25 075 26.1
2015-Aug-02 00:09 075 26.1
2015-Aug-01 23:54 075 26.1
2015-Aug-01 23:39 075 0 26.1
2015-Aug-01 23:24 074 1 26.1
2015-Aug-01 23:08 074 1 26.1
2015-Aug-01 22:54 077 1 26.1
2015-Aug-01 22:39 068 1 26.1
2015-Aug-01 22:23 075 1 26.1
2015-Aug-01 22:08 074 26.1
2015-Aug-01 21:54 074 0 26.1
2015-Aug-01 21:38 075 1 25.6
2015-Aug-01 21:23 075 0 25.6
2015-Aug-01 21:09 074 0 25.6
2015-Aug-01 20:52 072 0 26.1
2015-Aug-01 20:38 078 0 26.1
2015-Aug-01 20:23 078 26.1
2015-Aug-01 20:08 077 1 26.1
2015-Aug-01 19:53 094 0 26.7
2015-Aug-01 19:37 089 4 26.7
2015-Aug-01 19:22 109 4 26.7
2015-Aug-01 19:08 092 5 26.7
2015-Aug-01 18:52 090 6 27.2
2015-Aug-01 18:37 084 6 27.2
2015-Aug-01 18:23 096 6 27.2
2015-Aug-01 18:07 090 6 27.2
2015-Aug-01 17:52 088 8 27.8
2015-Aug-01 17:38 078 6 27.8
2015-Aug-01 17:21 113 8 27.8
2015-Aug-01 17:07 126 9 28.3
2015-Aug-01 16:52 119 7 28.3
2015-Aug-01 16:36 061 6 28.9
2015-Aug-01 16:21 089 6 28.9
2015-Aug-01 16:07 063 7 28.9
2015-Aug-01 15:51 071 8 28.9
2015-Aug-01 15:37 153 6 29.4
2015-Aug-01 15:21 110 6 29.4
2015-Aug-01 15:07 105 6 29.4
2015-Aug-01 14:51 078 8 29.4
2015-Aug-01 14:36 079 6 30.0
2015-Aug-01 14:21 103 7 29.4
2015-Aug-01 14:05 082 8 29.4
2015-Aug-01 13:51 111 9 29.4
2015-Aug-01 13:36 040 8 30.0
2015-Aug-01 13:21 108 8 30.0
2015-Aug-01 13:05 098 8 30.0
2015-Aug-01 12:50 107 8 30.0
2015-Aug-01 12:36 080 8 30.6
2015-Aug-01 12:21 109 7 30.6
2015-Aug-01 12:05 070 8 30.6
2015-Aug-01 11:51 107 7 30.6
2015-Aug-01 11:36 115 6 30.6
2015-Aug-01 11:20 080 4 31.1
2015-Aug-01 11:05 092 4 31.1
2015-Aug-01 10:50 091 4 31.1
2015-Aug-01 10:36 115 3 31.1
2015-Aug-01 10:19 090 3 30.6
2015-Aug-01 10:05 067 2 30.6
2015-Aug-01 09:50 348 3 30.0
2015-Aug-01 09:35 045 2 29.4
2015-Aug-01 09:19 073 0 30.0
2015-Aug-01 09:04 085 0 29.4
2015-Aug-01 08:50 128 0 29.4
2015-Aug-01 08:35 084 1 28.9
2015-Aug-01 08:19 082 2 28.3
2015-Aug-01 08:04 076 1 27.8
2015-Aug-01 07:50 093 1 27.2
2015-Aug-01 07:34 091 0 26.7
2015-Aug-01 07:19 091 0 26.7
2015-Aug-01 07:03 091 0 26.1
2015-Aug-01 06:49 092 26.1
2015-Aug-01 06:33 092 25.6
2015-Aug-01 06:19 092 25.6
2015-Aug-01 06:04